Notices

What's New in latest Release from April 7th, 2021:

- Updated Glossary, including Speed of Maximum Gust, and Total Hourly Precipitation

- Updated national and regional climate services offices contacts and prices information

- Addition of station inventory lists for 1981-2010, 1971-2000, and 1961-1990 Normals.

If you haven't already, please take our survey and provide feedback about our website: https://eccc.sondage-survey.ca/f/LanguageSelection.aspx?s=442ca660-fcf1-47c0-95a9-59707d6fd709

Hourly Data Report for November 26, 2019

PINAWA
MANITOBA
Current Station Operator: ECCC - MSC

50°10'38.020" N
96°03'53.000" W
268.00 m
503B1ER
71448
WEA

Download Data

Hourly Data (November 2019)
Hourly Data Report for November 26, 2019
TIME
LST
Temp Definition
°C
Dew Point Definition
°C
Rel Hum Definition
%
Precip. Amount Definition
mm

Wind Dir Definition
10's deg

Wind Spd Definition
km/h
Visibility Definition
km
Stn Press Definition
kPa
Hmdx Definition


Wind Chill Definition


Weather Definition


00:00 -1.4 LegendMM LegendMM 0.0 2 2   97.59   -2 LegendNANA
01:00 -1.4 LegendMM LegendMM 0.0 35 4   97.63   -3 LegendNANA
02:00 -1.6 LegendMM LegendMM 0.0 36 2   97.70   -2 LegendNANA
03:00 -1.7 LegendMM LegendMM 0.0 36 1   97.79   -2 LegendNANA
04:00 -1.8 LegendMM LegendMM 0.0 1 1   97.82   -2 LegendNANA
05:00 -1.9 LegendMM LegendMM 0.0 4 4   97.88   -3 LegendNANA
06:00 -2.0 LegendMM LegendMM 0.0 5 5   97.93   -4 LegendNANA
07:00 -2.1 LegendMM LegendMM 0.0 7 5   98.01   -4 LegendNANA
08:00 -2.3 LegendMM LegendMM 0.0 7 4   98.07   -4 LegendNANA
09:00 -2.2 LegendMM LegendMM 0.0 6 5   98.13   -4 LegendNANA
10:00 -2.0 LegendMM LegendMM 0.0 8 6   98.18   -4 LegendNANA
11:00 -1.7 LegendMM LegendMM 0.0 7 9   98.19   -5 LegendNANA
12:00 -1.5 LegendMM LegendMM 0.0 36 3   98.27   -3 LegendNANA
13:00 -1.2 LegendMM LegendMM 0.0 35 4   98.30   -3 LegendNANA
14:00 -1.4 LegendMM LegendMM 0.0 1 6   98.32   -4 LegendNANA
15:00 -1.3 LegendMM LegendMM 0.0 3 6   98.36   -4 LegendNANA
16:00 -1.5 LegendMM LegendMM 0.0 9 9   98.39   -5 LegendNANA
17:00 -2.0 LegendMM LegendMM 0.0 6 7   98.44   -5 LegendNANA
18:00 -3.1 LegendMM LegendMM 0.0 6 10   98.48   -7 LegendNANA
19:00 -4.3 LegendMM LegendMM 0.0 8 11   98.52   -9 LegendNANA
20:00 -5.2 LegendMM LegendMM 0.0 5 11   98.57   -10 LegendNANA
21:00 -5.8 LegendMM LegendMM 0.0 6 10   98.58   -10 LegendNANA
22:00 -5.8 LegendMM LegendMM 0.0 6 7   98.58   -9 LegendNANA
23:00 -5.5 LegendMM LegendMM 0.0 1 4   98.57   -7 LegendNANA

Notes on Data Quality.

Legend

  • E = Estimated
  • M = Missing
  • NA = Not Available*
  • [empty] = Indicates an unobserved value
Date modified: